Wind_Speed
28 27 24 25 24 23 22 22 22 22 23 23 23 22 22 22 21 20 19 19 19 18 18 18 17 17 17 17 17 16 17 16 16 15 15 14 14 14 14 13 13 12 11 10 9 9 9 9 8 8 9 11 11 12 12 12 12 10 9 10 12 15 17 18 19 18 18 18 19 18 19 18 17 16 17 17 18 19 19 19 19 19 20 19 19
30 28 25 25 24 23 22 22 22 22 23 23 23 22 23 22 21 20 19 18 18 18 18 18 17 17 17 16 16 16 16 15 15 15 14 14 14 13 13 13 14 13 11 10 9 10 10 9 8 8 9 10 11 12 12 12 12 10 9 11 15 16 18 19 18 17 17 17 18 18 18 17 16 16 17 17 18 19 19 19 19 19 19 19 19
29 27 25 24 24 22 22 21 21 22 22 23 23 22 22 22 21 20 19 18 17 18 18 18 17 16 16 15 15 15 15 14 14 14 14 13 13 13 13 12 12 12 11 10 9 9 10 10 9 9 10 11 11 13 13 13 12 11 10 13 15 16 18 18 17 16 16 17 17 18 17 16 15 15 16 17 18 18 19 18 18 18 18 18 18
27 25 24 23 23 21 20 20 20 21 22 24 23 22 22 21 21 20 19 18 17 17 17 18 18 17 16 15 15 14 14 14 13 13 14 13 13 13 13 11 10 10 9 9 9 9 9 10 10 10 11 12 12 13 14 13 12 12 12 13 13 14 17 17 16 16 16 17 17 17 17 16 15 15 16 17 18 18 18 18 17 18 18 18 18
27 25 24 22 21 18 17 18 19 21 23 24 23 22 21 21 20 19 19 18 17 16 17 17 17 17 16 16 15 15 14 14 14 14 14 14 14 13 13 11 9 8 7 8 8 8 9 10 12 11 12 13 13 14 14 14 13 13 13 12 12 13 16 16 16 16 16 17 17 17 17 16 15 14 15 16 17 18 18 17 17 18 17 17 17
29 27 25 23 19 15 15 16 18 21 23 24 23 22 21 21 20 19 19 18 17 16 16 16 17 17 16 16 15 15 14 13 13 14 14 14 14 13 12 11 9 8 6 7 7 7 9 10 12 12 12 13 14 14 15 15 15 14 13 12 11 12 15 16 16 16 16 17 17 17 17 16 15 14 15 15 16 16 17 17 17 17 17 17 16
29 29 28 26 21 15 14 15 18 20 23 23 23 22 20 20 19 19 18 18 17 16 16 16 16 16 16 15 14 14 13 13 12 12 13 13 13 11 11 10 10 8 5 5 6 6 8 10 12 13 12 13 14 15 16 16 16 14 13 12 11 12 15 16 16 17 17 17 17 16 16 15 14 13 13 14 14 15 16 16 16 16 16 16 16
27 28 28 28 26 20 17 16 17 19 22 23 22 21 20 19 19 18 17 17 16 16 16 16 15 16 16 15 14 13 12 12 11 11 11 11 10 9 9 9 9 7 5 3 5 5 6 10 12 12 12 13 14 15 16 16 15 13 12 10 10 10 14 17 17 18 17 17 17 15 14 14 13 12 12 13 13 13 14 15 16 16 15 16 17
25 26 27 26 26 23 20 18 18 19 21 22 22 20 19 18 17 17 16 16 16 16 16 16 16 16 16 15 14 13 12 11 10 10 9 9 8 7 7 7 7 6 5 3 2 4 5 9 11 12 12 13 14 15 16 15 14 13 11 9 8 8 11 16 16 16 16 16 16 14 13 12 12 11 11 12 12 12 12 13 15 15 15 15 16
27 27 25 22 22 23 21 20 19 20 21 22 21 20 18 17 17 16 16 16 16 16 16 16 16 17 16 15 14 13 12 11 10 9 8 8 7 6 6 6 5 4 4 2 1 3 5 8 10 11 13 15 16 16 16 15 14 12 11 9 8 7 8 14 14 13 13 14 15 13 12 11 10 10 10 10 10 10 10 11 13 15 14 15 16
31 29 26 21 20 21 21 20 20 20 21 22 21 20 18 17 17 16 16 16 16 16 16 16 17 17 17 15 14 13 13 12 10 9 8 8 7 6 6 5 5 4 4 3 2 3 4 6 9 10 12 16 18 18 17 15 14 12 11 9 8 8 8 13 11 10 11 12 13 12 10 10 9 10 9 8 9 10 9 10 11 13 14 14 15
32 29 27 23 20 20 20 19 19 20 20 21 21 20 18 18 17 17 17 17 16 16 16 16 17 17 17 16 14 14 13 12 11 10 8 7 6 6 6 6 6 5 5 4 4 4 4 6 9 10 11 16 19 18 18 16 15 13 11 10 9 8 9 11 10 9 8 10 12 11 9 9 9 9 8 7 8 9 9 9 9 11 13 13 14
32 29 27 23 21 18 18 18 18 18 19 19 20 19 18 18 18 17 17 17 17 17 17 17 17 17 16 15 14 14 13 13 11 10 9 8 7 6 6 5 5 5 5 5 5 4 4 5 7 10 11 14 19 19 18 17 16 14 12 11 11 9 10 10 9 8 7 9 11 11 9 9 8 8 7 6 7 8 9 8 8 9 11 12 13
32 29 27 24 21 18 16 17 17 18 18 19 19 19 18 18 17 17 17 17 18 18 18 18 17 16 15 15 14 14 13 12 11 10 9 8 7 7 6 5 5 5 5 5 6 6 5 5 6 9 11 12 17 19 19 18 16 14 12 11 11 9 10 9 9 7 7 9 10 10 9 8 7 6 6 6 5 6 7 8 8 8 9 10 11
31 29 27 23 20 19 16 15 17 18 18 18 18 18 18 17 17 16 16 17 18 18 18 18 17 17 16 15 14 13 12 10 10 9 8 8 7 7 6 5 5 5 5 5 6 7 6 6 6 8 10 11 16 19 19 18 16 14 12 11 11 9 9 9 9 8 7 10 10 9 9 8 6 5 4 5 4 4 5 6 7 7 8 9 10
28 27 26 23 21 20 17 15 16 17 18 18 17 17 17 16 16 15 15 15 16 16 16 16 16 16 16 15 14 12 10 9 8 8 8 7 7 6 6 5 5 5 5 5 5 6 6 6 6 7 10 11 15 19 19 18 16 14 12 11 11 9 7 7 8 8 8 9 9 9 8 7 6 4 3 3 3 3 3 5 6 6 6 8 9
26 25 25 24 23 22 19 17 16 16 17 17 16 16 16 16 15 14 14 14 14 14 14 14 14 14 14 13 12 10 9 8 7 7 7 6 6 5 5 4 5 4 4 5 5 6 5 5 6 7 9 11 14 19 21 19 17 15 13 12 11 8 6 6 6 7 8 9 8 8 7 6 5 4 2 2 2 1 2 3 4 5 6 7 7
25 25 23 23 23 21 20 19 18 17 17 17 16 16 16 16 15 14 14 13 13 13 13 12 12 12 11 10 9 8 7 7 6 6 5 5 5 5 5 5 5 5 5 5 5 5 5 5 6 7 9 11 13 18 22 20 17 15 13 12 11 7 5 6 6 6 8 9 8 7 6 4 4 3 2 2 1 1 1 1 3 4 5 5 6
25 24 21 24 25 22 20 19 19 18 17 17 16 16 16 16 15 14 14 14 13 12 12 11 11 10 9 8 7 7 6 5 5 4 4 4 4 5 5 5 5 5 5 6 5 5 5 5 5 6 8 11 12 17 22 21 18 16 13 12 11 7 6 7 7 6 8 9 8 7 5 4 2 2 2 1 1 1 0 0 2 3 3 4 5
25 23 22 25 25 22 21 19 19 18 18 17 17 17 16 15 15 14 13 13 13 12 12 11 11 10 10 9 8 7 6 5 4 3 3 3 4 4 5 6 6 6 6 6 5 5 5 5 5 5 7 9 11 14 20 21 19 16 12 11 10 7 6 7 7 7 8 8 8 7 6 4 1 1 2 2 3 3 2 1 1 2 2 3 4
25 24 23 25 24 22 22 20 19 18 18 17 17 17 16 15 14 13 13 12 12 11 11 11 10 10 10 9 8 7 6 5 4 4 4 4 4 4 5 6 6 7 7 7 5 5 5 5 5 5 6 7 9 12 17 20 19 16 12 10 10 8 6 7 7 7 8 8 7 6 6 4 2 1 1 3 4 4 3 3 2 2 2 2 3
28 28 26 26 25 23 22 21 20 18 18 17 17 16 15 15 13 12 12 11 11 11 11 10 10 9 9 9 8 7 6 6 5 4 4 5 5 5 5 6 7 7 7 6 6 5 4 4 4 4 4 6 8 10 14 19 19 16 13 9 8 8 6 6 7 7 8 7 6 5 4 4 3 2 2 3 4 5 5 4 3 3 2 2 3
29 31 29 28 25 23 22 20 19 18 18 16 15 15 14 13 12 11 11 11 11 11 11 10 9 9 9 9 8 7 6 6 6 6 5 5 6 6 6 7 7 7 6 6 6 6 5 4 3 3 3 4 7 9 13 17 18 16 13 10 8 8 5 4 6 7 7 6 4 3 3 3 3 2 2 2 4 6 6 6 5 4 3 3 3
30 30 28 27 24 23 21 19 18 17 16 15 14 13 12 12 11 11 10 10 10 10 10 9 9 9 9 8 8 7 6 6 7 7 6 6 7 7 7 8 8 7 7 6 6 6 6 4 3 1 2 3 6 9 12 16 17 16 14 11 9 9 6 4 5 7 7 6 4 3 3 3 3 3 2 2 4 6 7 7 6 6 4 4 4
28 27 25 25 23 21 19 18 17 16 15 15 14 13 13 12 11 11 10 10 10 11 10 10 9 9 8 8 7 7 7 7 7 7 6 7 8 9 9 8 9 8 7 7 6 6 6 5 3 2 2 3 5 8 11 15 17 17 15 13 10 9 7 4 5 6 6 5 4 2 2 2 3 3 2 2 3 5 8 8 7 7 6 5 5
26 25 24 23 21 20 18 18 17 17 16 14 14 13 12 11 10 11 11 11 11 11 11 11 10 9 9 8 7 7 7 7 7 8 7 8 9 10 10 9 10 9 8 8 7 7 7 5 4 3 3 4 6 8 11 13 17 18 16 14 11 9 7 5 5 5 5 4 3 3 2 3 4 3 2 2 2 4 7 8 8 8 7 6 6
26 24 23 22 21 20 19 19 18 17 16 14 13 12 11 11 11 11 11 11 11 12 11 11 10 10 10 9 9 9 8 8 8 9 9 10 10 11 11 10 10 9 9 8 8 8 8 6 5 4 3 4 7 8 11 13 16 18 16 14 12 9 7 6 5 5 5 3 3 2 1 3 4 3 2 1 2 3 6 8 9 9 8 7 7
26 25 24 22 22 21 20 19 17 17 15 14 13 12 11 11 11 12 12 12 12 12 12 12 11 11 11 11 12 11 10 9 9 10 11 11 11 11 11 10 10 9 9 8 7 7 7 7 6 5 4 4 6 9 11 12 14 17 18 16 13 10 8 8 7 7 6 4 2 1 1 2 3 3 1 1 1 2 5 7 9 9 9 8 7
26 26 24 23 22 21 21 19 18 16 15 14 13 11 11 11 12 12 12 12 12 13 13 13 13 13 13 13 13 13 11 10 10 11 11 11 10 11 11 10 10 9 9 8 7 7 7 7 7 6 5 5 7 8 10 12 12 14 17 16 13 9 7 9 8 8 7 5 4 2 2 2 1 1 1 0 0 1 3 6 8 9 9 8 7
26 25 24 24 23 21 21 19 18 16 15 13 12 11 10 10 11 11 11 12 11 12 13 13 14 14 13 13 13 13 12 11 11 11 11 10 10 10 11 10 10 9 8 7 6 7 7 6 7 7 6 6 8 9 9 10 11 12 14 14 12 8 6 7 7 8 6 5 4 3 2 2 1 1 1 1 1 1 1 4 7 8 9 9 9
26 24 23 23 22 22 20 19 17 16 15 13 11 10 9 9 9 10 11 10 10 11 12 13 13 12 11 11 12 12 12 12 12 12 11 10 10 10 11 11 10 9 8 8 7 7 8 7 7 8 8 9 10 10 8 8 9 11 12 13 11 7 6 6 5 5 4 3 3 3 2 1 1 2 2 1 1 1 1 1 4 6 8 8 9
24 23 23 23 23 22 20 18 16 15 14 12 10 8 7 7 8 9 9 9 9 10 11 12 11 10 10 10 11 11 12 13 13 12 12 11 10 9 10 11 10 9 8 9 8 8 9 8 8 9 9 10 10 9 8 7 7 7 10 11 10 7 7 7 5 4 3 2 2 2 3 1 0 2 2 2 1 1 1 0 1 3 5 6 7
25 24 24 23 22 20 19 18 16 14 12 10 8 6 6 6 6 7 8 9 9 10 10 10 9 9 10 10 10 11 12 13 13 12 12 12 11 10 10 10 10 10 9 9 9 8 9 8 8 9 10 10 10 9 7 7 6 5 8 10 10 9 8 9 7 5 5 4 3 4 4 2 1 3 4 3 2 2 2 1 0 1 2 3 3
26 25 24 22 20 18 18 16 14 12 10 8 6 5 4 5 5 5 6 7 8 8 8 8 8 8 9 9 10 11 12 12 12 12 12 12 12 10 10 10 11 11 10 10 10 9 9 9 9 10 10 10 10 9 8 7 6 5 7 9 10 10 10 11 10 9 7 7 6 5 5 4 2 3 4 4 4 3 3 2 1 1 1 1 1
23 23 22 19 19 19 16 13 13 11 8 6 4 3 3 4 5 4 4 5 6 7 7 7 8 8 7 8 8 9 11 12 13 13 13 12 12 11 10 10 10 10 9 9 10 10 10 10 11 11 11 11 11 11 10 8 7 7 9 11 11 12 12 11 11 11 10 9 8 7 6 5 4 3 2 2 3 3 4 3 2 1 0 1 1
20 21 20 18 19 18 14 12 12 9 6 4 3 3 3 5 4 3 4 4 5 6 6 7 7 6 7 7 7 8 9 11 12 13 13 13 13 13 12 10 10 10 10 10 10 10 11 11 11 11 11 11 12 11 10 10 10 10 11 12 13 13 12 11 10 11 12 12 11 10 9 7 6 5 3 2 0 2 2 3 3 2 1 1 1
20 20 20 20 19 17 14 13 11 8 5 5 5 4 4 4 4 3 3 4 4 4 5 6 6 6 7 7 7 8 9 11 12 12 12 13 13 13 12 11 11 11 11 10 10 11 12 12 12 12 11 11 11 11 11 12 13 14 14 13 13 13 12 11 10 10 11 12 12 12 11 10 9 8 7 5 3 2 0 1 2 2 2 2 2
21 21 20 20 20 18 16 14 12 8 5 6 5 5 5 5 6 6 6 6 6 5 4 5 5 6 7 7 7 8 9 10 11 12 11 12 11 12 14 13 13 13 12 11 11 11 12 13 13 13 12 11 11 10 11 11 13 14 13 12 12 12 11 10 9 9 10 10 12 13 12 11 11 10 9 8 7 5 3 2 2 2 2 2 1
23 23 23 23 23 20 17 16 14 10 8 8 8 8 8 8 9 9 9 9 8 7 5 5 5 5 5 5 6 7 8 9 10 10 10 10 9 11 13 13 13 14 12 10 10 11 12 13 13 13 13 12 10 9 10 10 10 11 12 10 9 10 10 10 9 9 9 9 10 12 12 11 12 13 11 10 9 8 6 4 3 2 2 3 2
24 26 26 26 25 22 20 19 17 13 11 12 11 10 11 11 12 11 10 9 7 6 5 5 5 4 4 5 6 6 5 6 7 8 8 8 8 9 10 11 12 12 9 8 10 10 12 14 13 12 13 13 10 8 9 8 7 9 11 10 9 8 9 10 11 11 11 11 9 9 10 10 11 13 13 12 11 10 8 7 6 4 3 3 3
23 25 27 26 24 21 21 21 19 15 13 13 13 12 12 12 11 11 10 8 6 5 5 5 4 4 5 6 7 6 4 3 4 4 5 6 6 7 7 8 10 9 7 7 9 9 11 13 13 13 13 13 11 9 9 8 7 8 10 11 10 9 9 10 12 14 15 14 12 10 10 9 9 11 14 14 13 12 10 9 8 7 6 5 5
21 25 26 25 23 21 21 20 18 16 15 13 13 13 12 10 9 9 8 7 6 5 5 6 5 5 5 5 6 7 6 5 4 3 4 4 4 3 4 4 5 6 7 7 7 9 10 11 11 12 12 12 12 11 10 10 9 8 9 10 10 9 9 10 13 15 16 16 16 14 12 11 11 11 12 13 13 14 13 11 10 9 8 6 6
24 26 26 25 24 24 22 19 18 17 16 14 14 14 12 10 8 7 7 7 6 4 4 4 5 5 5 4 6 7 7 7 6 5 4 3 3 3 2 2 3 3 4 5 6 8 9 9 9 10 11 11 11 12 12 11 11 10 9 10 9 8 8 9 11 13 14 16 16 15 13 12 12 13 12 11 12 13 12 10 10 9 8 8 7
30 29 29 27 26 25 22 20 19 18 16 16 17 15 13 11 9 8 7 6 5 4 3 3 3 4 4 4 4 5 6 6 7 6 5 5 4 3 3 3 3 2 2 4 4 5 6 7 8 9 10 11 11 12 12 12 12 11 9 8 8 7 6 6 8 10 12 14 14 15 14 12 12 13 13 12 11 10 10 10 9 9 9 9 8
34 32 30 28 26 24 21 20 20 19 19 19 18 16 14 13 12 11 9 7 6 5 4 4 4 4 4 4 5 5 5 5 5 4 5 5 5 4 4 3 2 2 2 3 3 3 4 5 6 7 7 8 9 11 12 12 12 11 10 8 7 6 5 5 5 5 7 9 9 11 12 12 12 12 13 14 13 12 11 10 9 9 9 9 8
34 32 30 27 25 23 22 21 20 21 21 20 18 16 15 13 10 8 8 8 7 5 3 4 5 5 5 5 5 6 6 5 4 3 4 3 3 3 3 2 2 2 2 1 1 1 1 1 1 3 5 6 8 9 10 11 11 11 11 11 8 6 5 5 4 3 3 4 4 6 7 9 10 10 11 12 12 13 13 12 12 12 11 10 9
33 31 29 26 24 23 23 23 23 23 23 21 19 17 15 12 8 5 5 5 5 5 5 5 6 5 6 6 6 7 7 6 5 3 4 4 3 3 4 4 4 3 3 2 2 3 3 4 3 2 2 4 6 6 7 8 9 9 10 10 9 8 6 4 4 4 3 3 4 4 4 4 6 6 7 7 7 8 10 11 12 11 10 11 10
32 30 28 25 23 23 24 25 25 25 24 21 18 17 14 11 9 7 7 6 6 6 6 7 6 5 5 6 6 7 7 7 5 3 3 4 4 4 4 4 4 4 3 3 3 3 3 3 5 5 3 1 3 4 4 5 6 7 8 9 9 7 4 3 3 4 4 4 5 5 4 2 2 4 6 5 4 4 4 5 6 6 6 8 8
31 29 26 22 21 23 25 25 26 25 24 21 18 16 14 11 10 10 10 9 9 8 7 7 6 5 5 5 5 7 7 7 6 3 3 4 4 3 3 3 3 3 3 1 1 3 4 5 5 4 4 3 1 1 1 2 4 5 6 8 9 7 5 3 3 3 3 3 4 4 4 3 2 1 3 3 3 3 4 5 7 7 7 8 8
30 28 24 21 20 23 25 25 25 24 23 21 18 17 15 13 12 12 13 12 11 10 8 6 6 5 5 6 6 6 7 8 6 4 3 4 3 2 2 2 2 1 1 1 2 3 3 3 3 2 3 4 4 3 2 2 2 2 3 5 7 6 5 4 3 3 3 4 4 3 5 5 5 3 1 1 2 4 6 7 8 9 10 10 10
29 28 25 22 20 22 23 23 24 23 22 20 19 18 17 15 14 14 14 13 12 10 7 5 5 6 6 7 7 6 6 6 6 5 4 3 2 1 1 2 3 3 3 3 3 4 4 5 4 4 4 4 4 4 3 3 3 3 2 2 3 5 4 4 3 3 2 2 2 3 5 6 7 6 4 2 2 4 6 6 6 7 9 11 12
Wind_Direction
171 169 168 167 167 167 169 173 174 172 166 162 161 157 152 149 145 141 138 137 138 140 141 140 140 138 135 135 133 132 130 131 132 132 133 133 135 135 139 144 144 140 139 139 137 131 126 125 124 128 131 132 135 133 126 126 127 121 114 106 102 102 97 90 88 84 78 76 75 73 72 73 74 76 77 75 75 78 77 74 75 77 77 74 72
167 166 167 167 167 167 170 174 176 174 168 164 163 159 154 151 148 144 142 138 139 141 142 143 143 142 138 135 133 132 132 134 135 137 138 136 134 134 136 139 139 135 135 138 136 129 126 124 122 127 128 130 134 134 132 133 132 126 118 107 106 106 99 93 92 88 81 78 75 73 70 69 71 74 78 78 78 79 78 75 75 75 76 74 72
164 163 166 166 167 168 172 176 178 175 169 166 164 160 155 153 150 147 145 141 141 142 145 146 145 145 143 140 138 137 136 136 137 139 138 135 130 128 127 127 130 128 127 132 134 134 133 129 125 127 129 129 133 136 137 138 135 131 124 114 114 110 101 96 95 91 83 78 75 72 68 65 65 69 75 78 79 80 78 76 76 76 77 76 72
161 159 164 166 168 171 174 178 179 174 168 166 164 161 157 155 152 150 147 144 144 145 147 148 148 147 146 145 144 143 142 140 138 137 134 129 124 121 120 119 124 122 118 122 132 137 136 134 129 127 128 130 134 139 140 140 137 135 131 124 122 114 106 99 95 91 85 81 76 72 67 63 61 64 71 75 79 80 79 78 79 79 78 77 74
159 158 164 166 169 174 178 180 177 172 167 165 165 163 159 157 156 153 150 147 145 145 148 150 151 149 148 148 147 147 145 144 141 136 130 126 123 120 120 121 122 120 113 111 123 133 131 129 128 126 128 134 137 141 143 140 139 140 138 134 131 120 112 106 98 92 87 83 77 73 69 65 60 61 65 71 76 78 81 81 80 79 79 77 73
159 160 162 165 169 174 179 178 173 169 167 165 165 164 160 159 158 157 154 151 149 148 149 151 154 152 151 150 150 149 147 147 144 139 133 130 128 124 124 125 121 122 119 101 105 125 133 126 125 128 131 137 139 143 143 140 142 146 146 142 138 127 117 114 104 94 91 86 79 75 70 65 61 60 63 67 71 76 81 81 79 78 79 78 74
160 160 159 162 166 171 176 174 171 168 166 165 166 165 161 161 160 159 157 154 153 152 151 152 156 157 155 152 152 151 149 146 144 143 139 136 133 128 126 127 126 129 127 87 76 98 126 124 121 129 133 139 142 145 144 144 147 150 151 147 147 138 124 120 110 99 94 88 81 77 72 68 63 59 61 63 67 74 79 81 81 79 79 78 76
161 160 159 163 164 167 173 172 169 168 166 165 167 165 163 161 160 159 157 155 155 154 153 153 155 159 158 154 151 152 151 147 145 143 141 140 137 133 128 129 131 133 129 92 61 62 106 121 119 126 131 139 143 145 147 148 150 150 150 149 153 152 133 125 116 103 96 90 83 78 74 70 65 60 58 59 63 69 76 82 85 83 80 77 76
162 159 162 165 162 162 168 171 169 168 167 166 168 166 164 162 160 158 156 156 155 155 155 154 154 156 158 155 152 151 150 148 146 143 142 141 138 134 131 132 133 133 130 114 62 50 84 111 113 122 130 139 145 145 151 151 150 149 149 151 150 159 141 125 117 106 99 91 83 78 76 72 69 65 59 59 61 63 70 81 87 86 83 78 76
163 160 164 166 162 160 164 170 169 169 168 167 168 166 166 163 161 158 156 156 155 155 155 155 154 155 155 154 152 149 149 147 145 144 142 140 139 135 135 138 139 140 131 121 85 72 88 104 107 118 132 142 147 148 152 150 149 148 150 152 151 169 139 116 116 108 101 93 83 77 78 77 75 73 65 60 61 62 65 77 86 87 83 79 78
161 161 163 164 163 162 164 170 169 170 170 168 169 169 168 165 161 159 157 156 156 156 156 156 155 155 153 151 148 147 148 147 145 143 142 140 140 138 137 141 145 144 133 127 110 102 106 110 111 116 135 148 150 151 151 149 150 149 150 153 165 177 128 111 119 109 102 96 83 76 77 80 79 76 71 62 60 61 61 66 79 87 84 81 80
159 160 161 162 164 163 165 170 171 171 171 169 169 170 167 164 162 159 157 157 157 157 157 156 155 154 152 151 149 149 149 148 146 142 141 142 141 138 137 141 145 141 133 128 113 112 118 119 118 116 135 155 156 155 154 153 153 153 156 165 183 177 126 118 123 112 105 95 83 78 78 85 85 79 75 66 62 62 60 59 66 81 86 83 81
157 158 159 161 161 162 164 169 172 172 171 169 169 168 165 163 161 158 156 155 155 155 156 154 154 154 152 154 153 151 150 148 146 144 146 145 144 138 136 139 141 137 128 125 120 119 125 124 125 121 132 159 164 161 159 159 157 159 166 177 196 178 135 129 123 117 110 93 85 83 84 90 89 82 80 72 65 64 64 62 61 72 82 81 79
157 158 159 159 157 156 162 168 170 170 170 169 168 166 163 161 158 155 153 152 152 151 152 153 153 154 154 155 154 151 148 146 146 148 150 150 148 143 140 138 135 129 122 125 127 120 118 119 126 127 131 158 170 168 164 163 161 163 174 186 204 185 146 139 128 123 111 98 91 89 91 92 88 80 79 75 67 66 67 67 65 69 75 76 77
158 158 157 156 154 152 159 170 170 169 168 167 167 164 160 157 153 151 149 149 148 147 149 151 153 154 154 153 152 149 147 148 150 153 154 154 152 151 147 138 135 130 125 126 125 115 110 110 119 133 136 152 170 174 169 165 164 166 178 192 212 200 158 147 133 125 110 100 94 92 92 92 94 84 75 72 65 69 74 73 72 73 74 74 74
157 156 156 155 156 156 161 173 172 168 166 165 165 159 154 150 147 146 145 145 143 144 147 150 152 152 153 152 152 150 150 152 155 159 160 163 162 164 160 146 141 136 134 131 125 115 106 102 107 130 141 150 167 177 174 168 166 168 180 194 215 213 169 155 137 123 107 93 91 92 88 89 103 102 90 75 59 62 75 80 81 79 75 78 76
156 157 159 158 159 161 166 173 173 169 166 164 162 154 148 146 145 145 143 142 139 143 147 148 150 150 152 153 154 154 154 156 159 167 168 173 174 176 174 159 151 141 138 136 131 121 109 101 100 121 139 146 162 176 177 171 169 171 179 195 214 214 178 163 142 122 103 87 82 84 82 85 110 119 112 88 66 55 65 82 91 88 80 83 83
158 160 160 161 162 164 169 171 172 170 167 165 161 153 149 149 147 147 143 142 141 146 149 149 150 149 153 153 156 157 158 159 160 169 173 180 180 182 183 174 163 150 146 142 137 130 118 109 95 108 133 144 157 174 179 175 173 173 178 196 211 210 186 171 150 126 102 85 71 70 76 78 106 125 131 115 92 71 36 77 95 96 89 90 92
162 165 162 165 166 167 171 172 171 169 169 166 163 157 155 155 153 152 148 147 148 152 154 154 152 150 154 155 159 161 159 161 160 172 182 191 189 187 186 182 172 157 156 155 149 138 129 123 104 102 126 144 154 170 179 178 177 176 177 194 207 202 183 169 154 135 104 84 67 63 70 72 102 130 149 170 182 193 293 104 100 102 99 94 98
166 170 166 167 169 171 173 173 171 170 172 168 165 162 161 161 160 159 156 156 157 159 161 159 158 157 160 162 166 166 163 165 170 192 213 216 209 201 194 190 179 166 165 166 162 150 139 135 121 111 119 140 153 165 177 179 179 178 177 192 202 192 172 161 152 138 110 88 74 66 63 63 79 146 179 198 211 212 235 243 146 118 121 110 108
168 170 169 170 172 174 171 170 172 172 173 170 170 168 166 167 166 166 164 166 166 169 170 168 168 166 168 170 172 172 170 175 182 201 222 231 231 223 205 198 189 177 175 173 173 166 156 149 136 128 121 132 150 163 173 177 180 179 175 187 198 191 172 160 153 143 124 101 85 71 60 57 44 326 240 211 217 215 220 240 218 175 165 137 128
169 169 172 175 177 176 172 171 173 173 174 175 176 173 173 173 172 174 173 175 177 180 180 179 179 177 179 181 181 180 180 189 199 206 217 230 236 233 216 207 202 192 186 179 178 178 175 168 151 142 133 133 147 163 173 176 180 181 175 178 195 198 187 170 160 150 137 117 97 75 58 52 38 351 286 227 221 218 216 235 228 207 207 168 157
174 172 174 179 179 176 173 173 174 174 177 179 180 179 180 179 180 183 183 186 190 193 193 192 190 189 191 192 192 190 192 203 214 218 221 230 233 229 221 214 207 201 198 190 183 183 186 188 173 152 149 147 150 164 176 178 181 182 177 175 191 203 203 185 167 161 154 135 112 80 52 44 33 11 316 244 225 220 217 229 231 220 214 190 185
177 173 175 178 177 175 173 175 177 180 182 183 185 186 186 185 188 192 196 198 202 207 207 206 204 206 204 203 203 200 209 221 228 234 238 238 234 227 221 217 211 206 207 204 196 192 191 193 194 189 176 175 167 168 177 182 185 185 180 176 188 204 212 197 166 167 166 147 125 92 50 35 25 14 341 264 232 224 219 222 229 224 213 199 200
176 172 175 175 174 174 174 177 183 188 190 191 190 191 192 192 195 200 206 209 212 218 219 221 221 224 224 222 216 212 223 234 240 247 253 248 240 230 220 219 216 211 212 213 211 205 201 194 194 218 213 204 191 178 178 183 187 188 186 183 189 204 211 198 169 169 165 146 128 98 44 14 15 12 351 288 254 232 223 221 225 222 215 206 206
174 173 175 173 171 173 176 181 188 193 197 199 197 198 200 200 205 211 217 220 223 227 229 232 233 236 240 241 236 231 234 243 252 254 253 249 244 233 224 224 221 220 221 220 220 213 208 203 203 222 226 215 207 192 185 183 186 188 190 190 192 203 211 205 189 180 163 145 125 94 33 3 14 15 354 299 275 241 224 223 225 221 220 215 212
173 174 175 171 172 176 180 185 191 196 200 203 205 206 208 211 216 222 228 232 237 239 241 242 242 245 248 251 250 248 246 251 258 256 252 249 243 234 231 232 228 229 233 231 229 220 213 215 223 225 221 217 211 200 191 186 186 188 192 196 196 201 209 214 212 198 180 159 133 94 11 1 10 14 351 297 271 242 228 226 224 220 223 223 221
172 173 173 174 175 178 182 187 192 197 201 203 207 209 210 213 218 224 230 235 241 246 250 250 250 252 254 255 255 255 252 254 256 254 252 249 242 234 234 237 235 235 238 239 235 223 214 220 231 220 212 214 206 199 196 190 187 189 193 198 198 196 205 213 218 212 203 192 181 209 310 343 357 10 356 299 272 241 233 228 223 220 224 226 228
174 172 172 174 176 179 182 187 190 193 197 200 204 204 204 208 212 220 226 231 238 246 252 253 254 254 254 254 254 255 253 253 253 251 249 246 239 234 236 238 238 240 241 241 234 220 211 218 223 211 204 203 193 192 196 196 194 195 195 197 196 190 200 213 216 213 210 207 210 230 269 303 340 22 30 32 45 272 247 229 221 219 222 226 234
175 173 173 172 174 180 181 183 183 185 188 191 194 194 198 203 206 211 219 227 232 240 248 251 252 252 253 252 253 254 253 251 247 246 245 241 235 232 235 236 236 239 241 239 229 218 210 209 208 198 194 189 182 182 188 194 197 197 195 195 196 189 199 216 215 209 211 224 237 256 277 264 183 110 89 70 37 337 279 241 222 219 220 226 234
178 174 172 173 174 177 178 177 175 174 176 180 184 187 193 196 196 199 210 221 223 231 240 246 251 250 250 249 252 253 250 247 243 244 243 239 237 232 232 232 232 234 239 238 229 219 212 204 196 191 189 186 182 182 181 183 187 192 193 194 195 193 204 214 205 197 206 227 250 272 276 240 160 124 100 70 18 347 305 273 232 222 221 228 234
179 175 171 174 176 175 173 171 166 163 165 170 175 177 183 188 192 193 202 215 219 225 234 241 247 247 244 243 247 249 247 245 244 245 243 240 238 232 229 230 232 233 238 242 233 221 214 207 198 193 192 190 188 188 187 184 183 192 202 205 204 204 212 216 209 196 194 200 228 239 233 240 107 100 99 87 20 4 12 341 223 223 228 234 235
175 177 176 175 173 170 164 160 158 157 159 162 166 170 181 193 195 188 194 211 219 227 233 239 243 246 246 245 248 250 248 245 246 247 243 244 242 232 225 224 230 232 235 241 237 229 220 214 204 198 198 198 196 196 198 192 190 209 222 223 222 222 225 226 225 214 202 213 237 231 222 225 109 101 97 94 69 37 32 26 212 225 245 250 242
179 181 179 173 170 165 158 157 157 156 158 160 169 182 200 215 209 191 191 207 219 225 228 234 240 247 251 251 250 250 250 247 247 248 245 247 247 238 226 223 228 229 232 239 239 236 228 222 213 204 203 205 205 206 210 207 206 231 245 241 240 242 241 238 238 234 223 225 239 235 219 209 161 119 105 92 76 58 42 34 14 279 259 259 261
190 189 180 174 171 167 164 165 162 162 165 163 176 207 239 238 227 213 202 205 213 217 222 227 236 247 253 250 246 244 249 251 250 250 247 247 246 240 232 231 232 225 232 243 243 240 233 230 222 213 211 212 215 218 219 224 229 244 254 252 252 255 253 249 247 244 238 236 239 234 221 213 199 170 144 110 76 58 44 44 45 30 274 250 262
196 196 181 178 175 172 178 178 169 169 172 178 200 227 244 239 232 220 210 207 206 211 215 214 222 242 252 250 248 248 250 253 254 253 252 251 248 242 233 229 232 231 235 241 243 241 237 234 227 218 217 217 222 228 228 233 241 248 253 254 254 258 257 255 253 245 242 243 242 237 228 220 219 219 219 217 109 54 46 59 70 62 43 6 326
196 199 184 182 179 180 192 185 173 177 188 204 213 222 229 228 232 226 220 225 221 215 206 204 218 238 249 253 255 255 251 252 255 255 258 260 257 253 247 237 234 237 235 233 237 240 237 234 228 221 221 223 228 236 241 244 249 252 252 252 251 254 256 258 260 252 248 247 243 241 236 227 225 230 237 237 235 250 5 102 110 89 57 38 18
196 199 189 189 186 189 197 184 177 186 197 210 214 219 223 224 231 235 239 242 240 234 214 206 224 241 251 257 258 255 250 249 254 258 260 260 258 255 254 248 239 235 229 226 233 239 237 235 232 230 230 233 237 246 255 254 253 248 243 242 241 243 247 252 259 256 252 249 243 243 243 239 232 230 233 233 230 236 243 219 169 138 121 117 102
193 197 196 196 191 191 191 182 183 192 196 203 209 217 225 230 232 237 242 241 240 236 222 208 217 236 250 259 264 262 256 252 254 256 254 254 251 247 249 249 244 240 229 220 226 235 238 236 236 236 237 238 240 251 259 258 254 240 228 224 227 233 236 242 252 252 245 243 240 241 244 245 238 230 227 225 226 229 236 240 232 193 164 165 174
191 195 195 194 191 188 185 183 188 194 196 201 209 220 225 226 230 238 242 238 232 226 217 207 209 229 252 271 279 275 268 258 250 246 246 249 249 244 245 247 250 252 243 223 221 230 237 237 236 236 238 239 237 242 249 251 250 236 226 222 224 232 238 245 251 248 237 232 231 233 235 238 237 231 226 223 225 227 233 241 243 244 242 238 248
192 192 191 191 192 189 185 186 191 196 203 211 219 226 226 223 227 235 239 238 233 234 236 231 228 238 256 271 270 261 255 247 238 231 232 239 243 245 248 251 256 260 252 230 221 229 237 237 235 235 240 243 236 231 236 242 244 239 231 228 234 244 250 251 249 247 240 231 228 226 227 230 230 228 226 226 227 227 232 238 241 245 250 258 269
192 189 189 190 192 190 188 190 194 199 208 222 229 229 228 229 235 235 235 240 241 245 258 261 256 255 260 256 243 240 240 236 230 223 218 214 217 233 250 255 257 255 247 236 228 234 239 238 237 237 241 243 237 229 231 240 246 244 234 232 240 246 249 249 249 251 249 241 236 235 236 237 236 231 225 224 225 227 232 238 242 248 254 262 274
190 189 191 191 189 188 189 194 198 201 208 219 224 225 225 225 233 233 228 236 238 231 249 268 265 263 263 242 226 227 232 237 236 230 224 202 177 174 189 211 229 239 236 229 228 232 238 241 238 239 241 241 237 231 230 237 244 245 240 239 240 240 242 245 248 252 252 248 243 243 245 239 237 237 233 226 222 224 230 234 237 243 254 266 276
186 187 189 188 187 188 191 197 200 201 206 210 213 217 216 210 210 209 210 223 228 228 246 268 266 266 272 261 248 237 233 237 236 231 226 217 207 193 185 186 195 204 202 208 219 227 237 243 240 239 241 240 237 234 233 234 239 242 244 243 239 239 239 240 245 248 252 253 249 251 252 243 239 239 236 234 230 231 233 231 230 236 247 258 267
185 187 188 189 190 192 195 199 199 198 202 206 206 204 199 197 196 194 198 205 210 222 241 252 252 255 269 277 279 275 264 251 232 218 214 221 237 235 222 200 183 196 208 214 225 238 252 255 249 244 242 241 238 236 236 236 238 241 241 240 235 234 235 238 244 247 253 256 256 256 251 243 245 245 240 238 236 239 239 233 232 232 237 247 255
188 190 192 196 198 200 201 198 195 196 201 203 201 197 195 196 196 195 199 199 198 201 214 241 247 250 256 258 259 260 259 252 236 207 189 198 220 212 201 181 149 159 193 221 252 283 304 279 251 245 239 238 235 233 233 232 235 237 236 238 239 241 245 245 240 229 234 242 245 248 238 236 248 256 256 252 249 252 250 250 253 251 253 258 258
192 195 198 203 206 207 203 197 195 198 200 200 198 196 197 200 205 210 209 203 197 189 188 212 225 233 239 238 235 232 236 242 242 220 176 163 159 144 139 136 127 124 124 110 89 83 85 80 59 25 266 236 223 222 225 222 224 229 230 233 239 248 252 243 225 208 196 187 191 206 220 242 262 267 267 264 270 272 257 249 256 259 261 264 266
195 199 203 206 211 210 202 196 197 200 200 199 198 198 201 204 209 217 219 217 216 205 194 198 207 213 221 227 228 225 229 234 238 232 172 154 156 139 126 127 126 120 105 90 79 69 56 30 16 20 19 324 211 207 212 207 207 213 220 225 229 233 227 205 199 197 182 171 175 187 201 232 265 260 263 264 267 274 253 234 242 255 260 263 265
200 205 208 212 215 209 200 197 201 202 200 199 198 199 205 213 218 222 222 218 217 212 200 195 198 200 205 214 218 225 234 240 242 230 162 149 157 139 110 103 109 124 125 106 344 345 341 337 343 5 35 39 26 235 227 204 197 193 203 217 218 217 221 212 206 214 204 191 189 183 169 135 113 246 270 274 243 223 224 227 237 245 251 256 256
205 211 213 217 218 207 200 201 203 202 200 199 199 200 206 217 226 227 225 222 215 206 199 195 192 190 194 197 199 209 223 233 239 219 162 147 143 122 80 46 38 83 171 282 319 337 339 340 348 27 73 73 61 51 49 72 118 148 171 203 208 213 235 248 242 243 229 224 221 176 138 107 81 77 151 208 215 214 215 219 230 241 245 248 252
208 213 216 219 219 209 201 201 199 197 197 199 202 204 209 218 227 227 227 230 221 205 201 206 198 189 186 183 182 187 193 204 217 211 187 167 141 97 18 30 59 84 96 91 81 75 72 76 81 88 96 91 80 71 63 69 75 84 119 162 193 210 232 251 256 258 228 223 219 171 136 94 73 75 95 129 214 231 229 226 226 235 243 242 241
Height
1499 1502 1504 1505 1506 1507 1509 1509 1510 1510 1511 1512 1512 1513 1513 1513 1513 1513 1513 1514 1514 1515 1516 1517 1518 1519 1520 1520 1521 1521 1522 1523 1524 1525 1526 1527 1527 1528 1528 1528 1529 1529 1529 1529 1530 1530 1530 1531 1531 1531 1531 1532 1532 1532 1533 1533 1534 1534 1535 1535 1535 1535 1536 1536 1536 1537 1537 1536 1536 1536 1535 1535 1535 1535 1534 1534 1534 1534 1533 1533 1533 1532 1532 1532 1532
1499 1502 1504 1505 1507 1508 1509 1509 1510 1511 1512 1512 1513 1514 1514 1514 1514 1514 1514 1515 1516 1516 1517 1518 1519 1520 1520 1521 1522 1522 1523 1524 1525 1525 1526 1527 1528 1528 1529 1529 1529 1530 1530 1530 1530 1530 1531 1531 1531 1531 1532 1532 1532 1533 1533 1534 1534 1535 1536 1536 1536 1537 1537 1537 1538 1538 1538 1538 1538 1537 1537 1537 1537 1536 1536 1536 1535 1535 1535 1534 1534 1533 1533 1533 1533
1501 1503 1505 1507 1508 1509 1510 1510 1511 1511 1513 1513 1514 1515 1515 1515 1515 1515 1515 1516 1516 1517 1518 1519 1520 1520 1521 1522 1523 1523 1524 1525 1526 1526 1527 1528 1528 1529 1530 1530 1530 1530 1530 1531 1531 1531 1531 1531 1532 1532 1532 1533 1533 1533 1534 1534 1535 1536 1536 1537 1537 1537 1538 1538 1539 1540 1540 1539 1539 1539 1538 1538 1538 1538 1537 1537 1536 1536 1536 1536 1535 1535 1534 1535 1534
1503 1505 1507 1508 1509 1510 1511 1512 1512 1513 1514 1515 1516 1516 1516 1516 1516 1516 1516 1517 1517 1518 1519 1520 1520 1521 1522 1523 1524 1524 1525 1526 1527 1527 1528 1528 1529 1530 1531 1531 1531 1531 1531 1531 1531 1531 1531 1532 1532 1532 1533 1533 1534 1534 1534 1535 1536 1536 1537 1537 1538 1538 1539 1540 1540 1541 1541 1541 1540 1540 1540 1540 1539 1539 1539 1538 1538 1537 1537 1537 1537 1536 1536 1536 1536
1503 1505 1507 1509 1510 1512 1513 1513 1514 1514 1515 1516 1517 1517 1517 1517 1517 1517 1517 1517 1518 1519 1519 1520 1521 1522 1523 1523 1524 1525 1526 1527 1527 1528 1529 1529 1530 1531 1531 1532 1532 1532 1532 1532 1532 1532 1532 1532 1532 1533 1533 1533 1534 1534 1535 1535 1536 1537 1537 1538 1538 1539 1540 1541 1541 1542 1542 1542 1542 1541 1541 1541 1541 1540 1540 1540 1539 1539 1539 1538 1538 1537 1537 1537 1537
1498 1500 1503 1508 1511 1513 1515 1515 1516 1516 1516 1516 1517 1518 1518 1518 1518 1517 1518 1518 1518 1519 1520 1521 1522 1523 1523 1524 1525 1526 1527 1527 1528 1529 1530 1530 1531 1531 1532 1532 1533 1533 1533 1533 1532 1532 1532 1533 1533 1533 1533 1534 1534 1535 1535 1536 1537 1537 1537 1538 1539 1540 1541 1542 1542 1543 1543 1543 1543 1542 1542 1542 1542 1542 1541 1541 1540 1540 1540 1539 1539 1539 1538 1538 1538
1498 1498 1499 1503 1508 1512 1515 1516 1517 1517 1517 1518 1518 1519 1519 1518 1518 1518 1518 1518 1519 1520 1520 1521 1522 1523 1524 1525 1525 1526 1527 1528 1529 1530 1531 1531 1532 1532 1533 1533 1533 1534 1534 1533 1533 1533 1533 1533 1534 1534 1534 1534 1535 1535 1536 1536 1537 1537 1538 1538 1539 1540 1541 1542 1543 1544 1544 1544 1543 1543 1543 1543 1543 1543 1543 1542 1542 1541 1541 1541 1540 1540 1540 1540 1539
1503 1502 1501 1501 1502 1508 1513 1516 1518 1518 1519 1519 1519 1519 1519 1519 1519 1519 1519 1519 1520 1520 1521 1522 1523 1524 1525 1526 1526 1527 1528 1529 1530 1531 1532 1532 1533 1533 1533 1534 1534 1534 1534 1534 1534 1534 1534 1534 1535 1535 1535 1535 1536 1536 1536 1537 1537 1538 1538 1539 1539 1540 1542 1543 1543 1544 1544 1544 1544 1544 1544 1544 1544 1544 1544 1543 1543 1543 1542 1542 1541 1541 1541 1541 1540
1506 1505 1506 1505 1502 1504 1510 1514 1516 1517 1518 1519 1520 1520 1520 1520 1520 1520 1520 1520 1521 1521 1522 1523 1524 1525 1526 1527 1527 1528 1529 1530 1530 1531 1532 1533 1534 1534 1534 1534 1535 1535 1535 1535 1535 1535 1535 1535 1536 1536 1536 1536 1536 1537 1537 1538 1538 1538 1539 1539 1539 1540 1542 1544 1544 1544 1545 1545 1545 1545 1545 1545 1545 1545 1545 1545 1544 1544 1543 1543 1543 1542 1542 1542 1542
1504 1506 1508 1510 1508 1506 1509 1513 1515 1516 1517 1518 1519 1520 1520 1521 1521 1521 1521 1521 1521 1522 1523 1523 1524 1526 1527 1528 1528 1529 1530 1530 1531 1532 1533 1534 1534 1535 1535 1535 1535 1535 1535 1535 1535 1536 1536 1536 1537 1537 1537 1537 1537 1538 1538 1539 1539 1539 1539 1539 1540 1540 1542 1544 1545 1545 1545 1546 1546 1546 1546 1546 1546 1546 1546 1546 1546 1545 1545 1544 1544 1543 1543 1543 1543
1501 1504 1507 1510 1511 1509 1510 1513 1515 1516 1516 1517 1519 1519 1520 1520 1521 1521 1521 1521 1522 1522 1523 1524 1525 1526 1527 1528 1529 1529 1530 1531 1532 1533 1533 1534 1535 1535 1536 1536 1536 1536 1536 1536 1536 1536 1536 1537 1537 1538 1538 1538 1538 1538 1539 1539 1540 1540 1540 1540 1540 1540 1542 1545 1545 1545 1546 1546 1547 1547 1547 1547 1547 1547 1547 1547 1547 1546 1546 1545 1545 1545 1544 1544 1544
1500 1503 1505 1508 1511 1511 1512 1514 1515 1516 1517 1517 1518 1519 1519 1520 1521 1521 1521 1521 1522 1522 1523 1524 1525 1526 1527 1528 1529 1529 1530 1531 1532 1533 1533 1534 1535 1536 1536 1536 1536 1536 1536 1536 1536 1536 1537 1537 1538 1538 1538 1538 1539 1539 1539 1540 1540 1540 1540 1540 1540 1541 1543 1545 1545 1546 1546 1547 1547 1548 1548 1548 1548 1548 1548 1548 1548 1547 1547 1547 1546 1546 1545 1545 1544
1501 1504 1506 1508 1510 1512 1514 1515 1517 1518 1518 1518 1519 1519 1520 1520 1521 1521 1521 1522 1522 1523 1524 1525 1526 1527 1528 1528 1529 1529 1530 1531 1532 1533 1534 1535 1535 1536 1537 1537 1537 1537 1537 1537 1537 1537 1537 1538 1538 1539 1539 1539 1539 1539 1540 1540 1540 1540 1540 1540 1540 1541 1543 1544 1546 1546 1547 1547 1548 1548 1548 1548 1549 1549 1549 1549 1549 1548 1548 1547 1547 1547 1547 1546 1545
1500 1503 1506 1508 1509 1512 1515 1517 1518 1519 1520 1520 1520 1520 1520 1521 1521 1522 1522 1523 1523 1524 1524 1526 1527 1528 1529 1529 1530 1530 1531 1532 1533 1533 1534 1535 1536 1536 1537 1538 1538 1538 1537 1537 1537 1537 1538 1538 1538 1539 1539 1539 1540 1540 1540 1541 1541 1541 1541 1541 1541 1542 1544 1544 1546 1547 1547 1548 1548 1549 1549 1549 1549 1549 1549 1549 1549 1549 1549 1548 1548 1548 1548 1547 1547
1501 1503 1506 1509 1511 1511 1514 1518 1519 1520 1521 1521 1521 1521 1521 1522 1522 1523 1523 1524 1524 1525 1525 1526 1528 1529 1530 1530 1531 1532 1532 1533 1534 1534 1535 1535 1536 1537 1537 1538 1538 1538 1538 1538 1538 1538 1538 1538 1539 1539 1540 1540 1540 1541 1541 1542 1542 1542 1542 1542 1541 1542 1545 1545 1546 1547 1547 1548 1549 1549 1550 1550 1550 1550 1550 1550 1550 1550 1550 1549 1549 1549 1549 1549 1548
1503 1505 1507 1510 1513 1512 1514 1519 1520 1521 1521 1522 1522 1522 1523 1523 1523 1524 1524 1525 1525 1526 1527 1528 1529 1530 1530 1531 1532 1533 1533 1534 1535 1535 1536 1536 1536 1537 1538 1538 1539 1539 1539 1539 1539 1539 1539 1539 1539 1539 1540 1540 1540 1541 1542 1542 1543 1543 1543 1542 1542 1543 1545 1546 1546 1547 1548 1549 1549 1550 1550 1550 1551 1551 1551 1551 1551 1551 1551 1550 1550 1549 1549 1549 1549
1506 1507 1507 1509 1513 1513 1515 1518 1520 1521 1522 1522 1523 1523 1523 1524 1525 1525 1526 1526 1526 1527 1528 1529 1530 1530 1531 1532 1533 1534 1534 1535 1535 1536 1536 1537 1537 1537 1538 1539 1539 1539 1539 1539 1539 1539 1539 1539 1539 1539 1540 1540 1540 1541 1542 1543 1543 1543 1543 1543 1543 1544 1545 1546 1547 1547 1548 1549 1550 1550 1550 1551 1551 1552 1552 1552 1552 1552 1552 1551 1551 1550 1550 1550 1550
1507 1508 1509 1509 1511 1514 1516 1518 1519 1521 1522 1523 1524 1524 1524 1524 1525 1526 1526 1527 1527 1528 1529 1530 1530 1531 1531 1532 1533 1534 1535 1535 1536 1537 1537 1537 1537 1538 1539 1539 1540 1540 1539 1539 1540 1540 1540 1540 1540 1540 1540 1540 1540 1541 1542 1543 1543 1544 1544 1544 1544 1544 1546 1546 1547 1548 1549 1550 1550 1550 1550 1551 1551 1552 1552 1552 1552 1552 1552 1552 1552 1551 1551 1551 1550
1508 1509 1509 1509 1511 1514 1516 1518 1519 1521 1522 1523 1524 1524 1525 1525 1526 1526 1527 1527 1528 1529 1529 1530 1530 1531 1532 1533 1534 1535 1535 1535 1536 1537 1537 1538 1538 1538 1539 1539 1540 1540 1540 1540 1540 1540 1540 1540 1540 1540 1540 1540 1540 1541 1542 1543 1543 1544 1544 1544 1544 1545 1546 1547 1547 1548 1549 1550 1551 1551 1551 1551 1552 1552 1552 1552 1552 1553 1553 1553 1553 1553 1552 1551 1551
1507 1508 1509 1510 1511 1514 1516 1518 1519 1520 1522 1523 1524 1525 1525 1525 1526 1526 1527 1528 1528 1529 1529 1530 1531 1531 1532 1533 1534 1535 1535 1536 1536 1537 1537 1537 1538 1538 1539 1539 1540 1540 1540 1540 1540 1540 1540 1541 1541 1541 1541 1541 1541 1541 1542 1543 1543 1544 1545 1545 1545 1546 1546 1547 1548 1548 1549 1550 1551 1551 1551 1551 1552 1552 1552 1552 1552 1553 1553 1553 1553 1553 1553 1552 1552
1506 1508 1509 1511 1512 1514 1515 1517 1519 1520 1522 1523 1524 1525 1525 1525 1526 1526 1527 1528 1528 1529 1529 1530 1531 1532 1533 1533 1534 1535 1535 1536 1536 1537 1537 1537 1538 1538 1539 1539 1540 1540 1540 1540 1540 1541 1541 1541 1541 1542 1542 1542 1542 1542 1542 1543 1544 1544 1545 1545 1545 1546 1546 1547 1548 1549 1549 1550 1551 1552 1552 1552 1552 1552 1552 1552 1552 1553 1553 1553 1553 1554 1554 1553 1553
1505 1506 1509 1511 1512 1513 1514 1516 1518 1520 1522 1523 1524 1524 1525 1525 1526 1527 1527 1528 1528 1529 1529 1530 1531 1532 1533 1534 1535 1535 1536 1536 1536 1537 1537 1538 1538 1538 1538 1539 1539 1540 1540 1540 1541 1541 1541 1541 1541 1542 1542 1542 1542 1542 1543 1543 1544 1544 1545 1545 1546 1546 1547 1547 1548 1549 1549 1550 1551 1552 1552 1552 1552 1552 1552 1552 1552 1553 1553 1553 1554 1554 1554 1554 1554
1504 1505 1507 1509 1511 1513 1515 1517 1518 1520 1521 1522 1524 1524 1525 1526 1526 1527 1527 1528 1528 1529 1529 1530 1531 1532 1533 1534 1535 1536 1536 1536 1537 1537 1537 1537 1537 1538 1538 1539 1539 1539 1540 1540 1541 1541 1541 1541 1542 1542 1543 1543 1543 1543 1543 1544 1544 1545 1545 1546 1546 1547 1547 1548 1549 1549 1550 1550 1551 1552 1552 1552 1552 1552 1552 1552 1552 1553 1553 1553 1553 1554 1554 1554 1554
1503 1505 1507 1509 1511 1513 1515 1517 1519 1520 1521 1522 1523 1524 1525 1526 1526 1527 1527 1528 1528 1529 1529 1530 1531 1532 1533 1534 1535 1536 1536 1537 1537 1537 1537 1537 1537 1538 1538 1539 1539 1539 1540 1540 1541 1541 1541 1542 1542 1542 1542 1543 1543 1543 1543 1544 1544 1545 1546 1546 1547 1547 1548 1548 1549 1549 1550 1551 1551 1552 1552 1552 1552 1552 1552 1552 1552 1553 1553 1553 1553 1554 1554 1554 1554
1504 1506 1508 1509 1511 1512 1514 1516 1518 1520 1521 1522 1523 1524 1525 1525 1526 1526 1527 1528 1528 1529 1530 1530 1531 1532 1533 1534 1535 1536 1536 1537 1537 1537 1537 1537 1537 1538 1538 1539 1539 1540 1540 1540 1541 1541 1541 1542 1542 1542 1542 1542 1543 1543 1543 1544 1545 1545 1545 1546 1547 1547 1548 1549 1549 1550 1550 1551 1551 1552 1552 1552 1552 1552 1552 1552 1552 1552 1553 1553 1553 1554 1554 1554 1554
1506 1507 1508 1509 1510 1512 1513 1515 1517 1519 1521 1522 1522 1523 1524 1525 1526 1526 1527 1527 1528 1529 1530 1530 1531 1532 1533 1533 1534 1535 1536 1537 1537 1537 1537 1537 1538 1538 1538 1539 1539 1540 1540 1540 1541 1541 1541 1541 1541 1541 1542 1542 1542 1543 1543 1544 1544 1545 1546 1546 1546 1547 1548 1549 1550 1550 1550 1551 1551 1552 1552 1552 1552 1552 1552 1552 1552 1552 1553 1553 1553 1554 1554 1554 1554
1505 1507 1508 1509 1510 1511 1513 1514 1516 1519 1520 1521 1522 1523 1524 1525 1525 1526 1526 1527 1528 1529 1529 1530 1531 1532 1532 1533 1534 1535 1536 1536 1537 1537 1537 1538 1538 1538 1539 1539 1539 1539 1540 1540 1541 1541 1541 1541 1541 1541 1541 1542 1542 1542 1543 1544 1544 1545 1545 1546 1546 1547 1548 1549 1550 1550 1550 1551 1551 1552 1552 1552 1552 1552 1552 1552 1552 1552 1552 1553 1553 1554 1554 1554 1554
1504 1506 1507 1508 1509 1510 1512 1514 1516 1518 1519 1520 1521 1522 1523 1524 1524 1525 1526 1527 1528 1529 1529 1530 1531 1531 1532 1533 1533 1534 1535 1536 1536 1537 1537 1538 1538 1538 1539 1539 1539 1539 1540 1540 1541 1541 1541 1541 1541 1541 1541 1541 1542 1542 1543 1544 1544 1545 1545 1546 1546 1547 1548 1549 1550 1550 1550 1551 1551 1551 1552 1552 1552 1552 1552 1552 1552 1552 1552 1552 1553 1553 1554 1554 1554
1504 1505 1505 1507 1508 1510 1512 1514 1516 1517 1518 1519 1521 1522 1522 1523 1524 1524 1525 1526 1528 1528 1529 1529 1530 1530 1531 1532 1533 1534 1535 1535 1536 1536 1537 1538 1538 1538 1539 1539 1539 1539 1540 1540 1540 1541 1541 1541 1541 1541 1541 1542 1542 1542 1543 1543 1544 1545 1545 1545 1546 1546 1547 1548 1549 1550 1550 1551 1551 1551 1552 1552 1552 1552 1552 1552 1552 1552 1552 1552 1553 1553 1554 1554 1554
1504 1505 1506 1507 1508 1510 1512 1514 1515 1517 1518 1519 1520 1521 1522 1523 1524 1524 1525 1526 1527 1528 1529 1529 1529 1530 1530 1531 1532 1533 1534 1535 1535 1536 1536 1537 1538 1538 1538 1539 1539 1539 1539 1540 1540 1541 1541 1541 1541 1541 1542 1542 1542 1543 1543 1543 1544 1544 1545 1545 1545 1546 1547 1548 1549 1550 1550 1551 1551 1551 1552 1552 1552 1552 1552 1552 1552 1552 1552 1552 1553 1553 1554 1554 1554
1505 1505 1506 1507 1508 1510 1512 1514 1515 1516 1517 1518 1520 1521 1522 1523 1524 1525 1525 1525 1527 1528 1528 1529 1529 1530 1530 1531 1532 1533 1534 1534 1534 1535 1536 1536 1537 1537 1537 1538 1538 1539 1539 1539 1540 1540 1541 1541 1541 1541 1542 1542 1543 1543 1543 1543 1543 1544 1545 1545 1545 1546 1547 1548 1549 1549 1550 1550 1551 1552 1552 1552 1552 1552 1552 1552 1552 1552 1552 1553 1553 1553 1554 1554 1554
1506 1506 1507 1508 1509 1510 1512 1514 1515 1516 1517 1518 1519 1521 1522 1523 1524 1525 1525 1525 1526 1527 1528 1529 1529 1530 1530 1531 1532 1532 1533 1533 1534 1534 1535 1535 1536 1536 1537 1537 1538 1538 1538 1539 1540 1540 1540 1540 1541 1541 1542 1542 1543 1543 1543 1543 1544 1544 1544 1544 1545 1546 1547 1548 1548 1549 1550 1550 1551 1551 1552 1552 1552 1552 1552 1552 1552 1552 1553 1553 1553 1553 1554 1554 1554
1505 1507 1508 1508 1510 1511 1512 1514 1516 1517 1518 1519 1520 1521 1522 1522 1523 1524 1525 1525 1526 1527 1528 1528 1529 1529 1530 1531 1531 1532 1532 1532 1533 1534 1534 1534 1535 1535 1536 1536 1537 1537 1538 1539 1539 1540 1540 1540 1541 1541 1542 1543 1543 1543 1543 1543 1544 1544 1544 1544 1545 1546 1546 1547 1548 1549 1549 1550 1550 1551 1552 1552 1552 1552 1552 1553 1553 1553 1553 1553 1553 1553 1554 1554 1554
1506 1508 1508 1509 1510 1511 1512 1514 1516 1517 1518 1519 1520 1520 1521 1522 1523 1524 1525 1525 1526 1527 1527 1528 1529 1529 1529 1530 1531 1531 1531 1532 1532 1533 1533 1533 1534 1534 1535 1535 1536 1537 1538 1538 1539 1539 1540 1540 1541 1541 1542 1543 1543 1543 1543 1544 1544 1544 1544 1544 1545 1545 1546 1547 1547 1548 1549 1549 1550 1551 1551 1552 1552 1552 1553 1553 1553 1553 1553 1553 1553 1553 1554 1554 1554
1509 1509 1509 1510 1511 1512 1513 1514 1516 1517 1518 1519 1520 1520 1521 1522 1523 1524 1524 1525 1525 1526 1527 1528 1528 1529 1529 1529 1530 1531 1531 1531 1531 1531 1532 1532 1532 1533 1534 1535 1535 1536 1537 1537 1538 1538 1539 1540 1541 1541 1542 1543 1543 1543 1543 1544 1543 1544 1544 1544 1544 1544 1545 1546 1547 1547 1548 1549 1549 1550 1551 1552 1552 1552 1553 1553 1554 1554 1554 1554 1554 1554 1554 1554 1554
1510 1511 1511 1512 1512 1513 1514 1515 1516 1518 1519 1519 1520 1521 1521 1522 1523 1524 1524 1525 1525 1526 1526 1527 1528 1528 1528 1528 1528 1529 1530 1530 1530 1530 1531 1532 1532 1533 1533 1534 1535 1535 1536 1537 1537 1538 1538 1539 1540 1541 1542 1542 1543 1543 1543 1543 1543 1543 1544 1544 1544 1544 1544 1545 1546 1547 1547 1548 1549 1550 1550 1551 1552 1552 1553 1553 1553 1554 1554 1554 1554 1554 1554 1554 1554
1510 1511 1512 1512 1513 1514 1515 1516 1516 1518 1519 1520 1520 1521 1522 1522 1523 1524 1524 1524 1525 1525 1526 1527 1527 1527 1527 1527 1527 1528 1529 1528 1529 1529 1530 1532 1533 1534 1534 1534 1535 1535 1535 1536 1536 1537 1538 1539 1540 1540 1541 1542 1542 1542 1543 1543 1543 1543 1543 1543 1543 1543 1544 1544 1545 1546 1546 1547 1548 1549 1550 1550 1551 1552 1552 1553 1553 1553 1554 1554 1554 1554 1554 1554 1555
1510 1512 1513 1513 1514 1515 1516 1516 1517 1518 1519 1520 1521 1521 1522 1523 1523 1524 1524 1524 1525 1525 1526 1527 1527 1527 1527 1527 1527 1527 1528 1528 1528 1528 1529 1531 1533 1534 1534 1534 1534 1534 1534 1535 1536 1537 1537 1538 1539 1540 1540 1541 1541 1542 1542 1542 1542 1542 1543 1543 1543 1543 1543 1544 1545 1545 1546 1546 1547 1548 1549 1550 1550 1551 1552 1552 1552 1553 1553 1553 1553 1553 1553 1554 1554
1509 1511 1513 1513 1514 1515 1515 1516 1517 1519 1520 1521 1522 1522 1523 1523 1523 1524 1524 1524 1525 1526 1526 1527 1527 1527 1527 1527 1527 1527 1527 1527 1527 1527 1529 1530 1531 1532 1533 1534 1533 1533 1533 1535 1536 1536 1537 1537 1538 1539 1539 1540 1540 1541 1541 1541 1541 1541 1542 1542 1543 1543 1543 1544 1544 1545 1546 1546 1547 1547 1548 1549 1550 1550 1551 1551 1552 1552 1553 1553 1553 1553 1553 1553 1553
1508 1510 1511 1512 1513 1514 1514 1516 1517 1519 1520 1521 1522 1523 1523 1524 1524 1524 1524 1524 1525 1525 1526 1526 1527 1527 1527 1527 1527 1527 1527 1527 1526 1527 1528 1528 1529 1530 1532 1533 1532 1532 1533 1535 1535 1535 1536 1536 1536 1537 1538 1539 1539 1540 1540 1540 1540 1541 1541 1542 1542 1543 1543 1544 1544 1545 1545 1546 1546 1547 1547 1548 1549 1549 1550 1551 1551 1551 1552 1553 1553 1553 1553 1553 1553
1507 1508 1510 1511 1513 1513 1514 1516 1517 1519 1520 1521 1522 1523 1523 1523 1524 1524 1524 1524 1525 1525 1525 1526 1527 1527 1527 1527 1527 1527 1527 1526 1526 1526 1527 1528 1529 1530 1531 1532 1532 1532 1533 1534 1534 1534 1535 1535 1535 1536 1537 1538 1538 1539 1540 1540 1540 1540 1540 1541 1542 1543 1543 1543 1543 1543 1544 1544 1545 1546 1547 1547 1548 1548 1549 1549 1550 1550 1551 1552 1552 1553 1553 1553 1553
1506 1508 1510 1511 1512 1513 1514 1516 1517 1519 1520 1521 1522 1522 1523 1523 1524 1524 1524 1524 1525 1525 1525 1525 1526 1526 1527 1526 1526 1526 1526 1526 1526 1526 1527 1528 1529 1530 1531 1531 1531 1532 1532 1533 1533 1534 1534 1534 1534 1535 1536 1537 1537 1538 1539 1539 1539 1540 1540 1540 1541 1542 1542 1542 1542 1542 1543 1543 1543 1544 1546 1547 1547 1547 1548 1548 1549 1549 1550 1550 1551 1552 1552 1553 1553
1506 1508 1509 1511 1512 1513 1514 1516 1517 1518 1520 1521 1522 1522 1523 1524 1524 1524 1524 1524 1524 1524 1525 1525 1525 1526 1526 1526 1526 1526 1526 1526 1526 1526 1527 1528 1529 1530 1531 1531 1531 1531 1531 1532 1533 1533 1533 1534 1534 1534 1535 1536 1536 1537 1538 1538 1539 1539 1539 1540 1540 1541 1541 1541 1541 1541 1542 1542 1543 1543 1544 1546 1546 1546 1546 1547 1547 1548 1549 1549 1550 1551 1551 1552 1552
1506 1508 1509 1511 1512 1513 1514 1516 1517 1518 1519 1520 1522 1522 1523 1524 1524 1524 1524 1524 1524 1524 1524 1525 1525 1525 1525 1525 1525 1525 1525 1526 1526 1527 1528 1528 1529 1530 1530 1530 1530 1530 1531 1531 1532 1533 1533 1533 1533 1534 1534 1535 1535 1536 1537 1537 1538 1538 1539 1539 1539 1539 1540 1540 1541 1541 1541 1542 1542 1542 1543 1545 1545 1545 1545 1545 1546 1547 1548 1548 1549 1550 1550 1551 1552
1506 1507 1509 1511 1512 1513 1514 1515 1516 1517 1519 1520 1521 1522 1523 1523 1523 1524 1524 1524 1524 1524 1524 1525 1525 1525 1525 1525 1525 1525 1525 1526 1527 1528 1528 1529 1529 1529 1529 1529 1530 1530 1531 1531 1532 1533 1533 1533 1533 1533 1533 1534 1534 1535 1535 1536 1537 1537 1538 1538 1538 1538 1539 1540 1540 1540 1540 1540 1541 1541 1542 1543 1544 1544 1544 1545 1546 1546 1546 1547 1548 1549 1549 1550 1550
1506 1508 1510 1511 1512 1513 1513 1514 1515 1516 1518 1520 1521 1522 1522 1523 1524 1524 1524 1524 1524 1525 1525 1526 1526 1526 1526 1526 1526 1526 1526 1527 1527 1528 1528 1529 1529 1529 1529 1529 1529 1530 1531 1531 1532 1532 1533 1533 1533 1533 1533 1533 1533 1534 1534 1535 1535 1536 1536 1537 1537 1537 1538 1539 1539 1540 1540 1540 1541 1540 1541 1542 1543 1543 1543 1544 1544 1544 1545 1547 1548 1547 1548 1549 1549
1505 1507 1509 1510 1511 1512 1512 1513 1514 1516 1518 1519 1521 1522 1523 1524 1525 1525 1525 1525 1525 1525 1526 1527 1527 1527 1527 1527 1527 1527 1527 1528 1528 1528 1528 1529 1529 1529 1529 1529 1529 1530 1531 1531 1532 1532 1533 1533 1533 1533 1533 1533 1533 1533 1534 1534 1534 1535 1535 1536 1536 1537 1537 1538 1538 1539 1540 1540 1541 1541 1541 1541 1542 1542 1542 1542 1543 1543 1543 1545 1546 1546 1546 1547 1547
1504 1506 1508 1509 1510 1511 1511 1513 1514 1517 1519 1520 1521 1522 1523 1525 1526 1527 1527 1527 1527 1527 1527 1528 1529 1529 1528 1528 1528 1528 1528 1528 1528 1528 1528 1528 1529 1529 1529 1529 1529 1530 1531 1531 1532 1533 1533 1533 1533 1534 1533 1533 1533 1533 1533 1533 1534 1534 1534 1535 1536 1536 1537 1537 1538 1538 1539 1540 1541 1541 1541 1542 1541 1541 1541 1541 1542 1542 1542 1543 1544 1545 1545 1546 1546
1504 1506 1507 1509 1510 1511 1511 1513 1515 1517 1520 1521 1523 1524 1525 1526 1527 1528 1528 1529 1529 1528 1528 1529 1530 1530 1529 1529 1529 1529 1528 1528 1528 1528 1528 1528 1528 1528 1529 1529 1529 1530 1531 1532 1532 1533 1533 1533 1533 1534 1534 1534 1534 1533 1533 1533 1534 1534 1534 1535 1535 1536 1536 1537 1538 1538 1539 1540 1540 1541 1541 1541 1541 1541 1540 1541 1541 1541 1541 1542 1543 1543 1544 1545 1545
1504 1506 1507 1509 1510 1511 1513 1515 1517 1519 1521 1523 1524 1525 1526 1527 1528 1529 1530 1530 1530 1529 1529 1530 1530 1530 1530 1530 1529 1529 1528 1528 1528 1528 1528 1528 1528 1528 1528 1529 1529 1530 1530 1531 1532 1533 1533 1533 1533 1533 1533 1534 1534 1534 1534 1534 1534 1534 1534 1534 1535 1536 1536 1537 1538 1538 1539 1539 1540 1540 1541 1541 1541 1540 1540 1540 1540 1540 1540 1541 1542 1542 1543 1543 1543
1503 1505 1506 1508 1510 1513 1515 1517 1519 1521 1523 1525 1526 1526 1526 1527 1528 1528 1529 1530 1530 1530 1530 1531 1531 1531 1531 1530 1530 1529 1529 1528 1528 1528 1528 1528 1528 1529 1529 1529 1528 1529 1530 1531 1532 1533 1533 1533 1533 1533 1533 1534 1534 1534 1534 1534 1534 1535 1535 1535 1536 1536 1537 1537 1538 1538 1539 1540 1540 1540 1541 1541 1541 1541 1540 1540 1540 1540 1540 1541 1541 1542 1542 1541 1542